Time,TemperatureF,DewpointF,PressureIn,WindDirection,WindDirectionDegrees,WindSpeedMPH,WindSpeedGustMPH,Humidity,HourlyPrecipIn,Conditions,Clouds,dailyrainin,SoftwareType,DateUTC
2013-07-01 00:03:00,71.8,57.6,29.93,North,11,3.0,5.0,61,0.00,,,0.00,meteohub,2013-07-01 05:03:00,
2013-07-01 00:08:00,71.6,57.9,29.93,North,11,3.0,5.0,62,0.00,,,0.00,meteohub,2013-07-01 05:08:00,
2013-07-01 00:13:00,71.4,58.1,29.93,North,11,2.0,6.0,63,0.00,,,0.00,meteohub,2013-07-01 05:13:00,
2013-07-01 00:18:00,71.4,58.1,29.93,North,10,2.0,6.0,63,0.00,,,0.00,meteohub,2013-07-01 05:18:00,
2013-07-01 00:23:00,71.2,57.9,29.93,North,9,3.0,6.0,63,0.00,,,0.00,meteohub,2013-07-01 05:23:00,
2013-07-01 00:28:00,71.1,58.3,29.93,North,9,3.0,5.0,64,0.00,,,0.00,meteohub,2013-07-01 05:28:00,
2013-07-01 00:33:00,70.9,58.1,29.93,North,5,4.0,5.0,64,0.00,,,0.00,meteohub,2013-07-01 05:33:00,
2013-07-01 00:38:00,70.7,58.3,29.93,North,5,3.0,5.0,65,0.00,,,0.00,meteohub,2013-07-01 05:38:00,
2013-07-01 00:43:00,70.3,58.1,29.93,North,5,3.0,6.0,65,0.00,,,0.00,meteohub,2013-07-01 05:43:00,
2013-07-01 00:48:00,70.2,58.3,29.93,North,5,2.0,6.0,66,0.00,,,0.00,meteohub,2013-07-01 05:48:00,
2013-07-01 00:53:00,70.0,58.1,29.93,North,5,4.0,6.0,66,0.00,,,0.00,meteohub,2013-07-01 05:53:00,
2013-07-01 00:58:00,69.8,57.9,29.94,North,5,5.0,5.0,66,0.00,,,0.00,meteohub,2013-07-01 05:58:00,
2013-07-01 01:03:00,69.4,57.9,29.94,North,5,4.0,6.0,67,0.00,,,0.00,meteohub,2013-07-01 06:03:00,
2013-07-01 01:08:00,69.4,57.9,29.93,North,5,3.0,6.0,67,0.00,,,0.00,meteohub,2013-07-01 06:08:00,
2013-07-01 01:13:00,69.8,58.3,29.93,North,5,3.0,6.0,67,0.00,,,0.00,meteohub,2013-07-01 06:13:00,
2013-07-01 01:19:00,70.0,58.1,29.93,North,5,4.0,6.0,66,0.00,,,0.00,meteohub,2013-07-01 06:19:00,
2013-07-01 01:24:00,69.6,58.1,29.93,North,5,6.0,7.0,67,0.00,,,0.00,meteohub,2013-07-01 06:24:00,
2013-07-01 01:29:00,69.6,58.1,29.93,North,5,4.0,7.0,67,0.00,,,0.00,meteohub,2013-07-01 06:29:00,
2013-07-01 01:34:00,69.6,58.1,29.93,North,5,6.0,7.0,67,0.00,,,0.00,meteohub,2013-07-01 06:34:00,
2013-07-01 01:39:00,69.6,58.1,29.93,North,5,4.0,7.0,67,0.00,,,0.00,meteohub,2013-07-01 06:39:00,
2013-07-01 01:44:00,69.8,58.3,29.93,North,5,4.0,7.0,67,0.00,,,0.00,meteohub,2013-07-01 06:44:00,
2013-07-01 01:49:00,69.6,58.1,29.93,North,5,4.0,6.0,67,0.00,,,0.00,meteohub,2013-07-01 06:49:00,
2013-07-01 01:54:00,69.4,57.9,29.93,North,5,3.0,6.0,67,0.00,,,0.00,meteohub,2013-07-01 06:54:00,
2013-07-01 01:59:00,69.1,58.1,29.93,North,5,1.0,5.0,68,0.00,,,0.00,meteohub,2013-07-01 06:59:00,
2013-07-01 02:04:00,68.7,57.7,29.93,North,5,1.0,4.0,68,0.00,,,0.00,meteohub,2013-07-01 07:04:00,
2013-07-01 02:09:00,68.5,57.9,29.93,North,5,0.0,4.0,69,0.00,,,0.00,meteohub,2013-07-01 07:09:00,
2013-07-01 02:14:00,68.4,58.3,29.93,North,5,0.0,3.0,70,0.00,,,0.00,meteohub,2013-07-01 07:14:00,
2013-07-01 02:20:00,68.2,58.5,29.93,North,5,1.0,2.0,71,0.00,,,0.00,meteohub,2013-07-01 07:20:00,
2013-07-01 02:25:00,68.0,58.3,29.93,North,5,3.0,3.0,71,0.00,,,0.00,meteohub,2013-07-01 07:25:00,
2013-07-01 02:30:00,67.8,58.1,29.93,North,5,2.0,3.0,71,0.00,,,0.00,meteohub,2013-07-01 07:30:00,
2013-07-01 02:35:00,67.8,58.5,29.93,North,5,3.0,4.0,72,0.00,,,0.00,meteohub,2013-07-01 07:35:00,
2013-07-01 02:40:00,67.6,58.6,29.93,North,5,3.0,5.0,73,0.00,,,0.00,meteohub,2013-07-01 07:40:00,
2013-07-01 02:45:00,67.6,58.6,29.93,North,5,2.0,5.0,73,0.00,,,0.00,meteohub,2013-07-01 07:45:00,
2013-07-01 02:50:00,67.6,58.6,29.93,North,5,4.0,5.0,73,0.00,,,0.00,meteohub,2013-07-01 07:50:00,
2013-07-01 02:55:00,67.6,58.6,29.93,North,5,3.0,5.0,73,0.00,,,0.00,meteohub,2013-07-01 07:55:00,
2013-07-01 03:03:00,67.8,59.2,29.93,North,5,5.0,5.0,74,0.00,,,0.00,meteohub,2013-07-01 08:03:00,
2013-07-01 03:08:00,67.8,58.8,29.93,North,9,4.0,5.0,73,0.00,,,0.00,meteohub,2013-07-01 08:08:00,
2013-07-01 03:13:00,68.2,59.5,29.93,North,0,3.0,6.0,74,0.00,,,0.00,meteohub,2013-07-01 08:13:00,
2013-07-01 03:18:00,68.2,59.5,29.93,North,0,4.0,6.0,74,0.00,,,0.00,meteohub,2013-07-01 08:18:00,
2013-07-01 03:23:00,68.2,59.5,29.93,North,355,3.0,6.0,74,0.00,,,0.00,meteohub,2013-07-01 08:23:00,
2013-07-01 03:28:00,68.0,59.7,29.93,North,355,3.0,6.0,75,0.00,,,0.00,meteohub,2013-07-01 08:28:00,
2013-07-01 03:33:00,67.8,59.5,29.93,North,355,4.0,5.0,75,0.00,,,0.00,meteohub,2013-07-01 08:33:00,
2013-07-01 03:38:00,67.6,59.7,29.93,North,355,3.0,6.0,76,0.00,,,0.00,meteohub,2013-07-01 08:38:00,
2013-07-01 03:43:00,67.5,60.1,29.93,North,355,4.0,6.0,77,0.00,,,0.00,meteohub,2013-07-01 08:43:00,
2013-07-01 03:48:00,67.5,60.4,29.93,North,0,4.0,6.0,78,0.00,,,0.00,meteohub,2013-07-01 08:48:00,
2013-07-01 03:53:00,67.6,60.6,29.93,North,5,5.0,6.0,78,0.00,,,0.00,meteohub,2013-07-01 08:53:00,
2013-07-01 03:58:00,68.0,60.4,29.93,North,5,5.0,7.0,77,0.00,,,0.00,meteohub,2013-07-01 08:58:00,
2013-07-01 04:03:00,68.4,60.8,29.93,North,5,3.0,7.0,77,0.00,,,0.00,meteohub,2013-07-01 09:03:00,
2013-07-01 04:08:00,68.4,60.4,29.93,North,5,6.0,8.0,76,0.00,,,0.00,meteohub,2013-07-01 09:08:00,
2013-07-01 04:13:00,68.4,60.4,29.93,North,5,4.0,8.0,76,0.00,,,0.00,meteohub,2013-07-01 09:13:00,
2013-07-01 04:18:00,68.2,60.3,29.93,North,5,4.0,7.0,76,0.00,,,0.00,meteohub,2013-07-01 09:18:00,
2013-07-01 04:23:00,68.2,60.3,29.93,North,5,4.0,7.0,76,0.00,,,0.00,meteohub,2013-07-01 09:23:00,
2013-07-01 04:28:00,68.2,60.3,29.94,North,5,4.0,7.0,76,0.00,,,0.00,meteohub,2013-07-01 09:28:00,
2013-07-01 04:30:00,68.0,60.1,29.94,North,5,4.0,7.0,76,0.00,,,0.00,meteohub,2013-07-01 09:30:00,
2013-07-01 04:37:00,67.6,60.3,29.94,North,5,3.0,7.0,77,0.00,,,0.00,meteohub,2013-07-01 09:37:00,
2013-07-01 04:42:00,67.5,60.1,29.94,North,5,4.0,7.0,77,0.00,,,0.00,meteohub,2013-07-01 09:42:00,
2013-07-01 04:47:00,67.6,59.7,29.94,North,5,3.0,6.0,76,0.00,,,0.00,meteohub,2013-07-01 09:47:00,
2013-07-01 04:52:00,67.6,59.7,29.94,North,5,4.0,6.0,76,0.00,,,0.00,meteohub,2013-07-01 09:52:00,
2013-07-01 04:57:00,67.6,59.7,29.94,North,5,6.0,7.0,76,0.00,,,0.00,meteohub,2013-07-01 09:57:00,
2013-07-01 05:02:00,67.6,59.7,29.94,North,5,5.0,8.0,76,0.00,,,0.00,meteohub,2013-07-01 10:02:00,
2013-07-01 05:07:00,67.5,59.5,29.94,North,5,6.0,8.0,76,0.00,,,0.00,meteohub,2013-07-01 10:07:00,
2013-07-01 05:12:00,67.5,60.1,29.94,North,5,4.0,8.0,77,0.00,,,0.00,meteohub,2013-07-01 10:12:00,
2013-07-01 05:17:00,67.1,59.7,29.94,North,5,3.0,7.0,77,0.00,,,0.00,meteohub,2013-07-01 10:17:00,
2013-07-01 05:22:00,66.7,59.7,29.95,North,5,3.0,7.0,78,0.00,,,0.00,meteohub,2013-07-01 10:22:00,
2013-07-01 05:27:00,66.7,59.7,29.95,North,5,5.0,5.0,78,0.00,,,0.00,meteohub,2013-07-01 10:27:00,
2013-07-01 05:32:00,66.6,59.5,29.95,North,5,4.0,6.0,78,0.00,,,0.00,meteohub,2013-07-01 10:32:00,
2013-07-01 05:37:00,66.4,59.4,29.95,North,0,2.0,6.0,78,0.00,,,0.00,meteohub,2013-07-01 10:37:00,
2013-07-01 05:42:00,66.2,59.5,29.95,North,0,4.0,5.0,79,0.00,,,0.00,meteohub,2013-07-01 10:42:00,
2013-07-01 05:47:00,66.0,59.4,29.95,North,0,4.0,5.0,79,0.00,,,0.00,meteohub,2013-07-01 10:47:00,
2013-07-01 05:52:00,66.0,59.4,29.96,North,351,4.0,7.0,79,0.00,,,0.00,meteohub,2013-07-01 10:52:00,
2013-07-01 05:57:00,66.2,59.5,29.96,NNW,346,8.0,8.0,79,0.00,,,0.00,meteohub,2013-07-01 10:57:00,
2013-07-01 06:02:00,66.4,59.7,29.96,NNW,342,6.0,8.0,79,0.00,,,0.00,meteohub,2013-07-01 11:02:00,
2013-07-01 06:07:00,66.4,59.7,29.96,North,5,4.0,8.0,79,0.00,,,0.00,meteohub,2013-07-01 11:07:00,
2013-07-01 06:12:00,66.2,59.5,29.96,North,5,5.0,8.0,79,0.00,,,0.00,meteohub,2013-07-01 11:12:00,
2013-07-01 06:17:00,66.0,59.4,29.96,North,5,3.0,7.0,79,0.00,,,0.00,meteohub,2013-07-01 11:17:00,
2013-07-01 06:22:00,66.0,59.4,29.97,North,355,5.0,8.0,79,0.00,,,0.00,meteohub,2013-07-01 11:22:00,
2013-07-01 06:27:00,66.0,59.4,29.97,North,351,4.0,8.0,79,0.00,,,0.00,meteohub,2013-07-01 11:27:00,
2013-07-01 06:32:00,65.8,59.2,29.97,NNW,346,4.0,8.0,79,0.00,,,0.00,meteohub,2013-07-01 11:32:00,
2013-07-01 06:37:00,65.8,59.2,29.97,NNW,348,4.0,7.0,79,0.00,,,0.00,meteohub,2013-07-01 11:37:00,
2013-07-01 06:42:00,65.8,59.2,29.97,NNW,348,6.0,8.0,79,0.00,,,0.00,meteohub,2013-07-01 11:42:00,
2013-07-01 06:47:00,66.0,59.4,29.98,North,355,3.0,8.0,79,0.00,,,0.00,meteohub,2013-07-01 11:47:00,
2013-07-01 06:52:00,66.0,59.4,29.98,North,355,5.0,8.0,79,0.00,,,0.00,meteohub,2013-07-01 11:52:00,
2013-07-01 06:57:00,66.0,59.0,29.98,NNW,348,5.0,8.0,78,0.00,,,0.00,meteohub,2013-07-01 11:57:00,
2013-07-01 07:02:00,66.0,59.0,29.98,NNW,348,5.0,8.0,78,0.00,,,0.00,meteohub,2013-07-01 12:02:00,
2013-07-01 07:07:00,66.0,59.0,29.98,NNW,347,6.0,7.0,78,0.00,,,0.00,meteohub,2013-07-01 12:07:00,
2013-07-01 07:12:00,66.2,59.2,29.98,North,349,5.0,7.0,78,0.00,,,0.00,meteohub,2013-07-01 12:12:00,
2013-07-01 07:17:00,66.4,59.4,29.99,North,351,5.0,7.0,78,0.00,,,0.00,meteohub,2013-07-01 12:17:00,
2013-07-01 07:22:00,66.4,59.0,29.99,NNW,345,5.0,7.0,77,0.00,,,0.00,meteohub,2013-07-01 12:22:00,
2013-07-01 07:27:00,66.7,59.4,29.99,NNW,346,5.0,8.0,77,0.00,,,0.00,meteohub,2013-07-01 12:27:00,
2013-07-01 07:32:00,67.1,59.4,29.99,NNW,344,6.0,9.0,76,0.00,,,0.00,meteohub,2013-07-01 12:32:00,
2013-07-01 07:37:00,67.5,59.2,29.99,NNW,348,5.0,9.0,75,0.00,,,0.00,meteohub,2013-07-01 12:37:00,
2013-07-01 07:42:00,68.0,59.4,30.00,NNW,348,4.0,9.0,74,0.00,,,0.00,meteohub,2013-07-01 12:42:00,
2013-07-01 07:47:00,68.4,59.7,30.00,North,355,8.0,9.0,74,0.00,,,0.00,meteohub,2013-07-01 12:47:00,
2013-07-01 07:52:00,68.7,59.7,30.00,NNW,344,4.0,9.0,73,0.00,,,0.00,meteohub,2013-07-01 12:52:00,
2013-07-01 07:57:00,69.3,60.3,30.00,North,355,5.0,9.0,73,0.00,,,0.00,meteohub,2013-07-01 12:57:00,
2013-07-01 08:02:00,69.8,60.4,30.00,NNW,340,6.0,9.0,72,0.00,,,0.00,meteohub,2013-07-01 13:02:00,
2013-07-01 08:07:00,70.2,60.3,30.00,North,355,5.0,10.0,71,0.00,,,0.00,meteohub,2013-07-01 13:07:00,
2013-07-01 08:12:00,70.3,60.4,30.01,NNW,341,6.0,10.0,71,0.00,,,0.00,meteohub,2013-07-01 13:12:00,
2013-07-01 08:17:00,70.3,60.4,30.00,North,11,5.0,10.0,71,0.00,,,0.00,meteohub,2013-07-01 13:17:00,
2013-07-01 08:22:00,70.5,60.3,30.00,North,5,6.0,10.0,70,0.00,,,0.00,meteohub,2013-07-01 13:22:00,
2013-07-01 08:27:00,70.9,60.6,30.00,North,355,8.0,11.0,70,0.00,,,0.00,meteohub,2013-07-01 13:27:00,
2013-07-01 08:32:00,71.2,61.0,30.00,North,5,8.0,11.0,70,0.00,,,0.00,meteohub,2013-07-01 13:32:00,
2013-07-01 08:37:00,71.8,61.0,30.00,NNE,22,8.0,12.0,69,0.00,,,0.00,meteohub,2013-07-01 13:37:00,
2013-07-01 08:42:00,72.1,61.0,30.01,NNE,14,6.0,12.0,68,0.00,,,0.00,meteohub,2013-07-01 13:42:00,
2013-07-01 08:47:00,72.7,61.2,30.01,North,355,2.0,12.0,67,0.00,,,0.00,meteohub,2013-07-01 13:47:00,
2013-07-01 08:52:00,73.0,61.9,30.01,North,5,6.0,11.0,68,0.00,,,0.00,meteohub,2013-07-01 13:52:00,
2013-07-01 08:57:00,73.6,61.5,30.01,NNE,17,6.0,11.0,66,0.00,,,0.00,meteohub,2013-07-01 13:57:00,
2013-07-01 09:02:00,73.9,61.9,30.01,North,355,5.0,11.0,66,0.00,,,0.00,meteohub,2013-07-01 14:02:00,
2013-07-01 09:07:00,74.1,62.1,30.01,North,0,5.0,10.0,66,0.00,,,0.00,meteohub,2013-07-01 14:07:00,
2013-07-01 09:12:00,74.8,62.2,30.01,NNE,21,8.0,10.0,65,0.00,,,0.00,meteohub,2013-07-01 14:12:00,
2013-07-01 09:17:00,75.2,62.2,30.01,North,5,6.0,11.0,64,0.00,,,0.00,meteohub,2013-07-01 14:17:00,
2013-07-01 09:22:00,75.7,61.9,30.01,North,5,8.0,11.0,62,0.00,,,0.00,meteohub,2013-07-01 14:22:00,
2013-07-01 09:27:00,76.1,62.1,30.02,North,5,4.0,11.0,62,0.00,,,0.00,meteohub,2013-07-01 14:27:00,
2013-07-01 09:32:00,76.5,62.1,30.02,North,9,3.0,11.0,61,0.00,,,0.00,meteohub,2013-07-01 14:32:00,
2013-07-01 09:37:00,76.6,62.6,30.02,North,5,6.0,12.0,62,0.00,,,0.00,meteohub,2013-07-01 14:37:00,
2013-07-01 09:42:00,76.6,62.6,30.02,NNW,338,5.0,12.0,62,0.00,,,0.00,meteohub,2013-07-01 14:42:00,
2013-07-01 09:47:00,77.0,61.5,30.02,North,0,4.0,12.0,59,0.00,,,0.00,meteohub,2013-07-01 14:47:00,
2013-07-01 09:52:00,77.2,62.2,30.02,North,9,4.0,13.0,60,0.00,,,0.00,meteohub,2013-07-01 14:52:00,
2013-07-01 09:57:00,77.5,62.1,30.02,NNE,15,9.0,13.0,59,0.00,,,0.00,meteohub,2013-07-01 14:57:00,
2013-07-01 10:02:00,77.7,62.2,30.01,NNE,20,5.0,13.0,59,0.00,,,0.00,meteohub,2013-07-01 15:02:00,
2013-07-01 10:07:00,77.9,61.9,30.01,NE,34,6.0,12.0,58,0.00,,,0.00,meteohub,2013-07-01 15:07:00,
2013-07-01 10:12:00,78.1,61.5,30.02,NNE,12,7.0,13.0,57,0.00,,,0.00,meteohub,2013-07-01 15:12:00,
2013-07-01 10:17:00,78.3,61.7,30.01,NNW,329,9.0,13.0,57,0.00,,,0.00,meteohub,2013-07-01 15:17:00,
2013-07-01 10:22:00,78.4,61.9,30.01,North,355,7.0,13.0,57,0.00,,,0.00,meteohub,2013-07-01 15:22:00,
2013-07-01 10:27:00,78.3,61.7,30.01,North,5,10.0,14.0,57,0.00,,,0.00,meteohub,2013-07-01 15:27:00,
2013-07-01 10:32:00,78.4,62.4,30.02,North,5,10.0,15.0,58,0.00,,,0.00,meteohub,2013-07-01 15:32:00,
2013-07-01 10:37:00,78.4,61.5,30.01,NNW,344,10.0,15.0,56,0.00,,,0.00,meteohub,2013-07-01 15:37:00,
2013-07-01 10:42:00,78.4,62.4,30.02,North,11,5.0,15.0,58,0.00,,,0.00,meteohub,2013-07-01 15:42:00,
2013-07-01 10:47:00,78.6,62.1,30.01,NNE,27,6.0,15.0,57,0.00,,,0.00,meteohub,2013-07-01 15:47:00,
2013-07-01 10:52:00,78.6,61.5,30.02,NE,39,7.0,15.0,56,0.00,,,0.00,meteohub,2013-07-01 15:52:00,
2013-07-01 10:57:00,79.0,61.9,30.02,NNE,17,7.0,15.0,56,0.00,,,0.00,meteohub,2013-07-01 15:57:00,
2013-07-01 11:02:00,79.2,61.2,30.02,North,9,10.0,15.0,54,0.00,,,0.00,meteohub,2013-07-01 16:02:00,
2013-07-01 11:07:00,79.0,61.0,30.02,NNW,342,11.0,16.0,54,0.00,,,0.00,meteohub,2013-07-01 16:07:00,
2013-07-01 11:12:00,79.0,61.5,30.02,North,0,10.0,16.0,55,0.00,,,0.00,meteohub,2013-07-01 16:12:00,
2013-07-01 11:17:00,79.3,60.3,30.01,NNW,342,11.0,16.0,52,0.00,,,0.00,meteohub,2013-07-01 16:17:00,
2013-07-01 11:22:00,79.5,60.8,30.02,NNW,348,7.0,18.0,53,0.00,,,0.00,meteohub,2013-07-01 16:22:00,
2013-07-01 11:27:00,79.5,61.3,30.01,NNW,344,9.0,18.0,54,0.00,,,0.00,meteohub,2013-07-01 16:27:00,
2013-07-01 11:32:00,79.5,61.3,30.02,NNE,27,7.0,18.0,54,0.00,,,0.00,meteohub,2013-07-01 16:32:00,
2013-07-01 11:37:00,80.1,61.3,30.02,NNE,26,9.0,15.0,53,0.00,,,0.00,meteohub,2013-07-01 16:37:00,
2013-07-01 11:42:00,80.8,61.5,30.02,North,355,7.0,15.0,52,0.00,,,0.00,meteohub,2013-07-01 16:42:00,
2013-07-01 11:47:00,81.0,61.7,30.01,NNW,337,9.0,15.0,52,0.00,,,0.00,meteohub,2013-07-01 16:47:00,
2013-07-01 11:53:00,81.1,60.8,30.01,North,5,9.0,16.0,50,0.00,,,0.00,meteohub,2013-07-01 16:53:00,
2013-07-01 11:58:00,81.7,62.4,30.01,NNW,331,12.0,16.0,52,0.00,,,0.00,meteohub,2013-07-01 16:58:00,
2013-07-01 12:03:00,81.5,61.0,30.01,North,355,13.0,16.0,50,0.00,,,0.00,meteohub,2013-07-01 17:03:00,
2013-07-01 12:08:00,81.1,60.1,30.01,North,355,5.0,16.0,49,0.00,,,0.00,meteohub,2013-07-01 17:08:00,
2013-07-01 12:13:00,81.0,61.2,30.01,NNW,329,9.0,16.0,51,0.00,,,0.00,meteohub,2013-07-01 17:13:00,
2013-07-01 12:18:00,81.5,62.2,30.01,NW,311,6.0,17.0,52,0.00,,,0.00,meteohub,2013-07-01 17:18:00,
2013-07-01 12:23:00,81.9,61.3,30.01,North,0,8.0,17.0,50,0.00,,,0.00,meteohub,2013-07-01 17:23:00,
2013-07-01 12:28:00,82.0,61.5,30.01,NNE,12,10.0,17.0,50,0.00,,,0.00,meteohub,2013-07-01 17:28:00,
2013-07-01 12:33:00,81.7,61.2,30.00,North,355,10.0,18.0,50,0.00,,,0.00,meteohub,2013-07-01 17:33:00,
2013-07-01 12:38:00,81.9,61.3,30.00,North,355,5.0,18.0,50,0.00,,,0.00,meteohub,2013-07-01 17:38:00,
2013-07-01 12:43:00,81.3,61.0,30.00,NW,323,6.0,18.0,50,0.00,,,0.00,meteohub,2013-07-01 17:43:00,
2013-07-01 12:48:00,80.8,61.5,30.00,NNW,339,8.0,17.0,52,0.00,,,0.00,meteohub,2013-07-01 17:48:00,
2013-07-01 12:54:00,80.4,61.2,30.00,NNW,344,9.0,17.0,52,0.00,,,0.00,meteohub,2013-07-01 17:54:00,
2013-07-01 12:59:00,80.8,60.4,30.00,NNW,342,10.0,17.0,50,0.00,,,0.00,meteohub,2013-07-01 17:59:00,
2013-07-01 13:04:00,81.7,61.9,30.00,NNE,20,6.0,17.0,51,0.00,,,0.00,meteohub,2013-07-01 18:04:00,
2013-07-01 13:09:00,82.2,61.2,30.00,North,355,15.0,16.0,49,0.00,,,0.00,meteohub,2013-07-01 18:09:00,
2013-07-01 13:14:00,82.2,61.2,30.00,North,5,11.0,16.0,49,0.00,,,0.00,meteohub,2013-07-01 18:14:00,
2013-07-01 13:19:00,82.2,61.2,30.00,North,5,10.0,18.0,49,0.00,,,0.00,meteohub,2013-07-01 18:19:00,
2013-07-01 13:24:00,81.3,61.5,30.00,NNE,19,13.0,18.0,51,0.00,,,0.00,meteohub,2013-07-01 18:24:00,
2013-07-01 13:29:00,81.9,61.3,30.00,NNE,14,6.0,16.0,50,0.00,,,0.00,meteohub,2013-07-01 18:29:00,
2013-07-01 13:34:00,81.3,60.3,30.00,NNW,341,14.0,16.0,49,0.00,,,0.00,meteohub,2013-07-01 18:34:00,
2013-07-01 13:39:00,81.7,60.6,30.00,NNW,336,8.0,17.0,49,0.00,,,0.00,meteohub,2013-07-01 18:39:00,
2013-07-01 13:44:00,81.9,60.3,29.99,NNW,343,15.0,17.0,48,0.00,,,0.00,meteohub,2013-07-01 18:44:00,
2013-07-01 13:49:00,82.2,59.9,29.99,NNW,348,9.0,17.0,47,0.00,,,0.00,meteohub,2013-07-01 18:49:00,
2013-07-01 13:54:00,82.6,61.5,29.99,North,5,14.0,17.0,49,0.00,,,0.00,meteohub,2013-07-01 18:54:00,
2013-07-01 13:59:00,82.2,59.9,29.99,NNE,27,7.0,17.0,47,0.00,,,0.00,meteohub,2013-07-01 18:59:00,
2013-07-01 14:04:00,82.9,61.2,29.99,North,0,15.0,17.0,48,0.00,,,0.00,meteohub,2013-07-01 19:04:00,
2013-07-01 14:09:00,82.9,60.6,29.99,NNW,334,9.0,17.0,47,0.00,,,0.00,meteohub,2013-07-01 19:09:00,
2013-07-01 14:14:00,83.1,59.5,29.99,North,0,7.0,17.0,45,0.00,,,0.00,meteohub,2013-07-01 19:14:00,
2013-07-01 14:19:00,82.9,60.6,29.99,NNW,334,2.0,17.0,47,0.00,,,0.00,meteohub,2013-07-01 19:19:00,
2013-07-01 14:25:00,83.5,61.2,29.99,North,0,11.0,15.0,47,0.00,,,0.00,meteohub,2013-07-01 19:25:00,
2013-07-01 14:30:00,83.8,61.5,29.99,NNE,12,3.0,15.0,47,0.00,,,0.00,meteohub,2013-07-01 19:30:00,
2013-07-01 14:35:00,83.7,60.1,29.99,North,355,11.0,15.0,45,0.00,,,0.00,meteohub,2013-07-01 19:35:00,
2013-07-01 14:40:00,83.5,60.4,29.99,North,0,11.0,15.0,46,0.00,,,0.00,meteohub,2013-07-01 19:40:00,
2013-07-01 14:45:00,84.0,62.2,29.99,NE,42,9.0,17.0,48,0.00,,,0.00,meteohub,2013-07-01 19:45:00,
2013-07-01 14:50:00,84.7,62.2,29.98,NNE,32,5.0,17.0,47,0.00,,,0.00,meteohub,2013-07-01 19:50:00,
2013-07-01 14:55:00,84.9,61.2,29.98,North,5,10.0,14.0,45,0.00,,,0.00,meteohub,2013-07-01 19:55:00,
2013-07-01 15:00:00,83.8,61.5,29.99,North,0,11.0,14.0,47,0.00,,,0.00,meteohub,2013-07-01 20:00:00,
2013-07-01 15:05:00,83.5,60.4,29.98,NNE,17,7.0,14.0,46,0.00,,,0.00,meteohub,2013-07-01 20:05:00,
2013-07-01 15:10:00,83.8,60.3,29.98,North,5,11.0,14.0,45,0.00,,,0.00,meteohub,2013-07-01 20:10:00,
2013-07-01 15:15:00,83.5,60.4,29.98,NW,323,5.0,18.0,46,0.00,,,0.00,meteohub,2013-07-01 20:15:00,
2013-07-01 15:20:00,83.7,60.6,29.99,NNW,336,14.0,18.0,46,0.00,,,0.00,meteohub,2013-07-01 20:20:00,
2013-07-01 15:25:00,84.0,60.4,29.98,North,5,6.0,18.0,45,0.00,,,0.00,meteohub,2013-07-01 20:25:00,
2013-07-01 15:30:00,83.8,60.3,29.98,NNE,19,5.0,18.0,45,0.00,,,0.00,meteohub,2013-07-01 20:30:00,
2013-07-01 15:35:00,83.5,59.9,29.98,North,5,4.0,17.0,45,0.00,,,0.00,meteohub,2013-07-01 20:35:00,
2013-07-01 15:41:00,83.3,61.5,29.98,NNE,25,6.0,17.0,48,0.00,,,0.00,meteohub,2013-07-01 20:41:00,
2013-07-01 15:46:00,83.1,60.3,29.98,NE,44,6.0,15.0,46,0.00,,,0.00,meteohub,2013-07-01 20:46:00,
2013-07-01 15:51:00,83.7,61.3,29.97,NE,34,2.0,15.0,47,0.00,,,0.00,meteohub,2013-07-01 20:51:00,
2013-07-01 15:56:00,84.6,61.5,29.97,NNE,12,8.0,15.0,46,0.00,,,0.00,meteohub,2013-07-01 20:56:00,
2013-07-01 16:01:00,84.4,61.9,29.98,NNE,21,7.0,14.0,47,0.00,,,0.00,meteohub,2013-07-01 21:01:00,
2013-07-01 16:06:00,84.9,61.2,29.97,NNE,17,9.0,14.0,45,0.00,,,0.00,meteohub,2013-07-01 21:06:00,
2013-07-01 16:11:00,84.0,60.4,29.97,NNW,341,6.0,14.0,45,0.00,,,0.00,meteohub,2013-07-01 21:11:00,
2013-07-01 16:16:00,84.6,60.8,29.97,NNW,334,9.0,14.0,45,0.00,,,0.00,meteohub,2013-07-01 21:16:00,
2013-07-01 16:21:00,84.6,60.3,29.97,NNE,27,6.0,14.0,44,0.00,,,0.00,meteohub,2013-07-01 21:21:00,
2013-07-01 16:26:00,84.7,61.0,29.97,NE,44,6.0,14.0,45,0.00,,,0.00,meteohub,2013-07-01 21:26:00,
2013-07-01 16:31:00,83.8,60.3,29.97,NNE,19,10.0,14.0,45,0.00,,,0.00,meteohub,2013-07-01 21:31:00,
2013-07-01 16:36:00,83.5,61.2,29.97,North,5,7.0,16.0,47,0.00,,,0.00,meteohub,2013-07-01 21:36:00,
2013-07-01 16:41:00,84.4,60.8,29.96,North,9,10.0,16.0,45,0.00,,,0.00,meteohub,2013-07-01 21:41:00,
2013-07-01 16:46:00,84.9,60.6,29.96,North,355,8.0,14.0,44,0.00,,,0.00,meteohub,2013-07-01 21:46:00,
2013-07-01 16:51:00,85.1,60.1,29.96,North,351,9.0,14.0,43,0.00,,,0.00,meteohub,2013-07-01 21:51:00,
2013-07-01 16:56:00,84.7,60.4,29.97,North,355,11.0,16.0,44,0.00,,,0.00,meteohub,2013-07-01 21:56:00,
2013-07-01 17:02:00,83.8,60.8,29.96,NE,42,9.0,16.0,46,0.00,,,0.00,meteohub,2013-07-01 22:02:00,
2013-07-01 17:07:00,84.0,60.4,29.96,NNE,12,6.0,16.0,45,0.00,,,0.00,meteohub,2013-07-01 22:07:00,
2013-07-01 17:12:00,84.6,60.8,29.96,NNE,17,7.0,13.0,45,0.00,,,0.00,meteohub,2013-07-01 22:12:00,
2013-07-01 17:17:00,84.7,61.0,29.96,NNE,16,6.0,13.0,45,0.00,,,0.00,meteohub,2013-07-01 22:17:00,
2013-07-01 17:22:00,85.5,61.0,29.96,North,11,6.0,13.0,44,0.00,,,0.00,meteohub,2013-07-01 22:22:00,
2013-07-01 17:27:00,85.8,60.1,29.96,North,0,7.0,12.0,42,0.00,,,0.00,meteohub,2013-07-01 22:27:00,
2013-07-01 17:32:00,85.8,60.8,29.96,North,5,9.0,12.0,43,0.00,,,0.00,meteohub,2013-07-01 22:32:00,
2013-07-01 17:37:00,85.1,60.1,29.96,NNE,19,4.0,13.0,43,0.00,,,0.00,meteohub,2013-07-01 22:37:00,
2013-07-01 17:42:00,85.3,60.3,29.96,NE,40,5.0,13.0,43,0.00,,,0.00,meteohub,2013-07-01 22:42:00,
2013-07-01 17:47:00,85.3,59.5,29.95,North,5,5.0,13.0,42,0.00,,,0.00,meteohub,2013-07-01 22:47:00,
2013-07-01 17:52:00,85.5,60.4,29.95,North,355,7.0,11.0,43,0.00,,,0.00,meteohub,2013-07-01 22:52:00,
2013-07-01 17:54:00,85.5,59.7,29.95,NNW,348,9.0,11.0,42,0.00,,,0.00,meteohub,2013-07-01 22:54:00,
2013-07-01 17:59:00,85.3,59.5,29.95,North,5,8.0,13.0,42,0.00,,,0.00,meteohub,2013-07-01 22:59:00,
2013-07-01 18:04:00,85.3,60.3,29.95,North,10,4.0,15.0,43,0.00,,,0.00,meteohub,2013-07-01 23:04:00,
2013-07-01 18:09:00,85.6,59.9,29.95,North,5,11.0,15.0,42,0.00,,,0.00,meteohub,2013-07-01 23:09:00,
2013-07-01 18:14:00,85.5,59.7,29.95,NNE,13,6.0,16.0,42,0.00,,,0.00,meteohub,2013-07-01 23:14:00,
2013-07-01 18:19:00,85.3,59.5,29.94,North,5,6.0,16.0,42,0.00,,,0.00,meteohub,2013-07-01 23:19:00,
2013-07-01 18:24:00,84.9,59.9,29.95,NE,36,11.0,16.0,43,0.00,,,0.00,meteohub,2013-07-01 23:24:00,
2013-07-01 18:29:00,84.7,59.7,29.95,NNE,25,6.0,16.0,43,0.00,,,0.00,meteohub,2013-07-01 23:29:00,
2013-07-01 18:34:00,84.4,60.1,29.95,North,5,9.0,12.0,44,0.00,,,0.00,meteohub,2013-07-01 23:34:00,
2013-07-01 18:40:00,84.6,60.3,29.95,North,5,9.0,14.0,44,0.00,,,0.00,meteohub,2013-07-01 23:40:00,
2013-07-01 18:45:00,84.9,60.6,29.95,North,355,8.0,14.0,44,0.00,,,0.00,meteohub,2013-07-01 23:45:00,
2013-07-01 18:50:00,84.6,60.8,29.96,North,5,9.0,14.0,45,0.00,,,0.00,meteohub,2013-07-01 23:50:00,
2013-07-01 18:55:00,84.2,59.4,29.95,NNE,16,12.0,14.0,43,0.00,,,0.00,meteohub,2013-07-01 23:55:00,
2013-07-01 19:00:00,83.1,57.6,29.96,North,5,7.0,14.0,42,0.00,,,0.00,meteohub,2013-07-02 00:00:00,
2013-07-01 19:05:00,82.9,58.8,29.96,North,355,7.0,14.0,44,0.00,,,0.00,meteohub,2013-07-02 00:05:00,
2013-07-01 19:10:00,82.6,59.0,29.96,North,5,11.0,14.0,45,0.00,,,0.00,meteohub,2013-07-02 00:10:00,
2013-07-01 19:15:00,82.2,59.4,29.96,North,355,11.0,15.0,46,0.00,,,0.00,meteohub,2013-07-02 00:15:00,
2013-07-01 19:20:00,81.9,58.5,29.96,North,5,6.0,15.0,45,0.00,,,0.00,meteohub,2013-07-02 00:20:00,
2013-07-01 19:25:00,81.7,58.8,29.96,NNE,22,7.0,15.0,46,0.00,,,0.00,meteohub,2013-07-02 00:25:00,
2013-07-01 19:30:00,81.5,58.6,29.97,North,5,7.0,14.0,46,0.00,,,0.00,meteohub,2013-07-02 00:30:00,
2013-07-01 19:35:00,81.9,59.7,29.97,NNE,12,8.0,14.0,47,0.00,,,0.00,meteohub,2013-07-02 00:35:00,
2013-07-01 19:40:00,82.0,59.2,29.97,North,5,6.0,14.0,46,0.00,,,0.00,meteohub,2013-07-02 00:40:00,
2013-07-01 19:46:00,82.0,59.9,29.96,NNW,347,6.0,11.0,47,0.00,,,0.00,meteohub,2013-07-02 00:46:00,
2013-07-01 19:51:00,82.0,58.6,29.96,North,5,5.0,11.0,45,0.00,,,0.00,meteohub,2013-07-02 00:51:00,
2013-07-01 19:56:00,81.9,58.5,29.96,North,5,10.0,13.0,45,0.00,,,0.00,meteohub,2013-07-02 00:56:00,
2013-07-01 20:01:00,81.5,58.6,29.97,North,0,5.0,13.0,46,0.00,,,0.00,meteohub,2013-07-02 01:01:00,
2013-07-01 20:06:00,81.1,58.5,29.97,North,355,5.0,13.0,46,0.00,,,0.00,meteohub,2013-07-02 01:06:00,
2013-07-01 20:11:00,80.4,58.3,29.97,North,355,5.0,10.0,47,0.00,,,0.00,meteohub,2013-07-02 01:11:00,
2013-07-01 20:16:00,79.9,58.5,29.97,North,0,3.0,9.0,48,0.00,,,0.00,meteohub,2013-07-02 01:16:00,
2013-07-01 20:21:00,79.3,59.0,29.97,North,0,5.0,7.0,50,0.00,,,0.00,meteohub,2013-07-02 01:21:00,
2013-07-01 20:26:00,79.0,58.8,29.97,North,5,3.0,7.0,50,0.00,,,0.00,meteohub,2013-07-02 01:26:00,
2013-07-01 20:31:00,78.4,58.3,29.97,North,355,4.0,7.0,50,0.00,,,0.00,meteohub,2013-07-02 01:31:00,
2013-07-01 20:36:00,77.9,58.3,29.97,North,355,4.0,7.0,51,0.00,,,0.00,meteohub,2013-07-02 01:36:00,
2013-07-01 20:41:00,77.5,57.9,29.97,North,355,3.0,6.0,51,0.00,,,0.00,meteohub,2013-07-02 01:41:00,
2013-07-01 20:46:00,77.2,58.3,29.98,North,355,4.0,6.0,52,0.00,,,0.00,meteohub,2013-07-02 01:46:00,
2013-07-01 20:51:00,76.8,57.9,29.97,North,355,3.0,6.0,52,0.00,,,0.00,meteohub,2013-07-02 01:51:00,
2013-07-01 20:56:00,76.6,57.7,29.98,North,355,4.0,6.0,52,0.00,,,0.00,meteohub,2013-07-02 01:56:00,
2013-07-01 21:01:00,76.6,58.3,29.97,North,355,4.0,5.0,53,0.00,,,0.00,meteohub,2013-07-02 02:01:00,
2013-07-01 21:07:00,76.5,58.1,29.98,North,355,1.0,5.0,53,0.00,,,0.00,meteohub,2013-07-02 02:07:00,
2013-07-01 21:12:00,76.3,58.5,29.98,North,355,3.0,5.0,54,0.00,,,0.00,meteohub,2013-07-02 02:12:00,
2013-07-01 21:17:00,76.1,58.8,29.98,North,355,1.0,5.0,55,0.00,,,0.00,meteohub,2013-07-02 02:17:00,
2013-07-01 21:22:00,75.9,58.6,29.98,North,355,1.0,4.0,55,0.00,,,0.00,meteohub,2013-07-02 02:22:00,
2013-07-01 21:27:00,75.7,57.9,29.98,North,355,0.0,3.0,54,0.00,,,0.00,meteohub,2013-07-02 02:27:00,
2013-07-01 21:32:00,75.4,58.1,29.98,North,355,0.0,3.0,55,0.00,,,0.00,meteohub,2013-07-02 02:32:00,
2013-07-01 21:37:00,75.0,57.7,29.99,North,355,0.0,3.0,55,0.00,,,0.00,meteohub,2013-07-02 02:37:00,
2013-07-01 21:42:00,74.7,58.5,29.99,North,355,1.0,1.0,57,0.00,,,0.00,meteohub,2013-07-02 02:42:00,
2013-07-01 21:47:00,74.5,58.3,29.99,North,355,1.0,2.0,57,0.00,,,0.00,meteohub,2013-07-02 02:47:00,
2013-07-01 21:52:00,74.1,57.9,29.99,North,355,2.0,3.0,57,0.00,,,0.00,meteohub,2013-07-02 02:52:00,
2013-07-01 21:57:00,74.1,58.5,29.99,North,355,4.0,4.0,58,0.00,,,0.00,meteohub,2013-07-02 02:57:00,
2013-07-01 22:02:00,74.1,58.5,29.99,North,355,2.0,4.0,58,0.00,,,0.00,meteohub,2013-07-02 03:02:00,
2013-07-01 22:07:00,74.1,58.5,29.99,North,355,3.0,4.0,58,0.00,,,0.00,meteohub,2013-07-02 03:07:00,
2013-07-01 22:12:00,74.1,58.8,29.99,North,355,4.0,4.0,59,0.00,,,0.00,meteohub,2013-07-02 03:12:00,
2013-07-01 22:17:00,74.1,58.8,29.99,North,355,3.0,5.0,59,0.00,,,0.00,meteohub,2013-07-02 03:17:00,
2013-07-01 22:22:00,74.1,58.8,29.99,North,355,3.0,5.0,59,0.00,,,0.00,meteohub,2013-07-02 03:22:00,
2013-07-01 22:27:00,73.9,58.6,30.00,North,355,3.0,5.0,59,0.00,,,0.00,meteohub,2013-07-02 03:27:00,
2013-07-01 22:32:00,73.8,58.5,30.00,North,355,3.0,5.0,59,0.00,,,0.00,meteohub,2013-07-02 03:32:00,
2013-07-01 22:37:00,73.6,58.8,30.00,North,355,3.0,5.0,60,0.00,,,0.00,meteohub,2013-07-02 03:37:00,
2013-07-01 22:42:00,73.4,58.6,30.00,North,355,2.0,5.0,60,0.00,,,0.00,meteohub,2013-07-02 03:42:00,
2013-07-01 22:47:00,73.4,58.6,30.00,North,5,4.0,6.0,60,0.00,,,0.00,meteohub,2013-07-02 03:47:00,
2013-07-01 22:52:00,73.4,58.3,30.00,North,5,4.0,6.0,59,0.00,,,0.00,meteohub,2013-07-02 03:52:00,
2013-07-01 22:57:00,73.2,58.1,30.01,North,5,5.0,6.0,59,0.00,,,0.00,meteohub,2013-07-02 03:57:00,
2013-07-01 23:01:00,73.0,58.3,30.01,North,5,3.0,6.0,60,0.00,,,0.00,meteohub,2013-07-02 04:01:00,
2013-07-01 23:06:00,72.7,57.9,30.01,North,9,4.0,7.0,60,0.00,,,0.00,meteohub,2013-07-02 04:06:00,
2013-07-01 23:11:00,72.7,57.9,30.01,North,0,6.0,7.0,60,0.00,,,0.00,meteohub,2013-07-02 04:11:00,
2013-07-01 23:16:00,72.3,57.2,30.01,North,5,3.0,7.0,59,0.00,,,0.00,meteohub,2013-07-02 04:16:00,
2013-07-01 23:21:00,72.0,57.4,30.01,North,5,4.0,6.0,60,0.00,,,0.00,meteohub,2013-07-02 04:21:00,
2013-07-01 23:26:00,71.4,57.2,30.01,North,5,3.0,6.0,61,0.00,,,0.00,meteohub,2013-07-02 04:26:00,
2013-07-01 23:32:00,71.2,57.0,30.01,North,5,2.0,5.0,61,0.00,,,0.00,meteohub,2013-07-02 04:32:00,
2013-07-01 23:37:00,70.9,57.2,30.01,North,5,4.0,5.0,62,0.00,,,0.00,meteohub,2013-07-02 04:37:00,
2013-07-01 23:42:00,70.9,57.2,30.01,North,5,3.0,4.0,62,0.00,,,0.00,meteohub,2013-07-02 04:42:00,
2013-07-01 23:47:00,70.5,57.4,30.01,North,5,3.0,4.0,63,0.00,,,0.00,meteohub,2013-07-02 04:47:00,
2013-07-01 23:52:00,70.3,57.2,30.02,North,5,4.0,5.0,63,0.00,,,0.00,meteohub,2013-07-02 04:52:00,
2013-07-01 23:57:00,70.3,57.6,30.02,North,5,3.0,5.0,64,0.00,,,0.00,meteohub,2013-07-02 04:57:00,